[[{"header":{"parameterUnit":"m.s-1","parameterCategory":1,"la1":30.2991,"la2":30.254,"lo1":-89.0895,"lo2":-89.0444,"dy":0.0017,"dx":0.0017,"nx":28,"ny":28,"refTime":"2024-02-11T09:00:00:Z","depth":0,"parameterNumber":2,"parameterNumberName":"U-component_of_WINDS"},"data":[0,0,0,0,0,0,0,0,0,0,0,0,0,0,0,0,0,0,0,0,0,0,0,0,0,0,0,0,0,0,0,0,0,0,0,0,0,0,0,0,0,0,0,0,0,0,0,0,0,0,0,0,0,0,0,0,0,0,-4.2824,-4.2825,0,-4.2832,-4.2832,-4.2832,-4.2738,-4.2735,-4.2733,-4.273,-4.2736,-4.2739,-4.2741,0,0,0,0,0,0,0,0,0,0,0,0,0,-4.2728,-4.273,-4.2824,-4.2825,-4.2825,-4.2832,-4.2832,-4.2832,-4.2738,-4.2735,-4.2732,-4.2729,-4.2736,-4.2739,-4.2742,0,0,0,0,0,0,0,0,0,0,0,0,0,-4.2756,-4.2731,-4.2824,-4.2779,-4.2775,-4.2832,-4.2832,-4.2832,-4.2739,-4.2735,-4.2731,-4.2728,-4.2735,-4.2738,-4.2742,-4.2843,0,0,-4.2754,-4.2755,0,0,0,0,0,0,0,0,-4.2755,-4.276,-4.2785,-4.2782,-4.2778,-4.278,-4.28,-4.2836,-4.274,-4.2753,-4.273,-4.2726,-4.2754,-4.2756,-4.2766,-4.2843,-4.2843,-4.2754,-4.2756,-4.2758,-4.2759,0,0,0,0,0,0,0,-4.2753,-4.2759,-4.2827,-4.2786,-4.2781,-4.2758,-4.2757,-4.2806,-4.2775,-4.2751,-4.2744,-4.2747,-4.2751,-4.2762,-4.2765,-4.2843,-4.2754,-4.2757,-4.276,-4.2761,-4.3003,-4.3007,0,0,0,0,0,0,-4.2757,-4.2758,-4.2827,-4.2827,-4.2757,-4.2763,-4.2762,-4.2783,-4.2774,-4.2769,-4.275,-4.2742,-4.2758,-4.2761,-4.2765,-4.2881,-4.2758,-4.2762,-4.2764,-4.2999,-4.3004,-4.3008,0,0,0,0,0,0,-4.2756,-4.2764,-4.2827,-4.2791,-4.2797,-4.2768,-4.2793,-4.2785,-4.2796,-4.2773,-4.2767,-4.2767,-4.2755,-4.276,-4.2824,-4.288,-4.2763,-4.2767,-4.2994,-4.3001,-4.3006,-4.3116,0,0,0,0,0,0,-4.2753,-4.2764,-4.2802,-4.2793,-4.2799,-4.2886,-4.2796,-4.2788,-4.2803,-4.2793,-4.2788,-4.2783,-4.2752,-4.2819,-4.2828,-4.2883,-4.277,-4.2989,-4.2997,-4.3004,-4.3107,-4.3125,-4.314,0,0,0,0,0,-4.275,-4.2832,-4.2805,-4.2814,-4.2846,-4.289,-4.2893,-4.2857,-4.2808,-4.2846,-4.2831,-4.2783,-4.2873,-4.2826,-4.2836,-4.2893,-4.2985,-4.2995,-4.3004,-4.3099,-4.3121,-4.314,0,0,0,0,0,0,-4.2848,-4.283,-4.2799,-4.2881,-4.2888,-4.2874,-4.292,-4.2881,-4.2901,-4.2891,-4.2844,-4.2844,-4.2916,-4.2911,-4.2859,-4.299,-4.2921,-4.2932,-4.299,-4.3011,-4.3027,-4.3026,-4.2773,0,0,0,0,0,-4.288,-4.2917,-4.2899,-4.2973,-4.2978,-4.2949,-4.2966,-4.2938,-4.2943,-4.2945,-4.2934,-4.2941,-4.297,-4.299,-4.3016,-4.3107,-4.3103,-4.3151,-4.3168,-4.3181,-4.3191,-4.3238,-4.3259,-4.3039,-4.3039,-4.3039,0,0,-4.2945,-4.2939,-4.2965,-4.2993,-4.2994,-4.3033,-4.2952,-4.2996,-4.3025,-4.2951,-4.3011,-4.3005,-4.3008,-4.3086,-4.312,-4.3084,-4.3252,-4.3193,-4.3204,-4.3207,-4.325,-4.3271,-4.3289,-4.3045,-4.3044,-4.3043,0,0,-4.3082,-4.3083,-4.3144,-4.3148,-4.3152,-4.3133,-4.3148,-4.314,-4.3133,-4.3193,-4.3138,-4.3172,-4.3224,-4.3228,-4.3238,-4.338,-4.3336,-4.339,-4.3476,-4.3522,-4.354,-4.3555,-4.3604,-4.3623,-4.34,-4.34,-4.3401,0,-4.3162,-4.3219,-4.318,-4.3229,-4.3242,-4.3179,-4.324,-4.3246,-4.3259,-4.3269,-4.323,-4.3294,-4.3292,-4.337,-4.3405,-4.3415,-4.343,-4.3389,-4.354,-4.3555,-4.3569,-4.3615,-4.3634,-4.3407,-4.3406,-4.3405,-4.3405,0,-4.3316,-4.3357,-4.3406,-4.3421,-4.344,-4.3495,-4.3464,-4.3488,-4.3459,-4.3443,-4.3505,-4.3501,-4.3525,-4.3542,-4.3513,-4.3616,-4.3594,-4.3549,-4.3477,-4.3597,-4.3639,-4.3657,-4.3416,-4.3414,-4.3412,-4.341,0,0,-4.3514,-4.3508,-4.3526,-4.3532,-4.3533,-4.3563,-4.3616,-4.364,-4.3661,-4.3673,-4.3715,-4.3761,-4.372,-4.373,-4.3702,-4.3743,-4.3855,-4.3692,-4.3691,-4.3721,-4.3967,-4.3999,-4.4021,-4.3827,-4.383,-4.3832,-4.3966,0,-4.3647,-4.3736,-4.3703,-4.3794,-4.3831,-4.3773,-4.3818,-4.3824,-4.3811,-4.384,-4.3826,-4.386,-4.3803,-4.3809,-4.3847,-4.3833,-4.3903,-4.3823,-4.3864,-4.3866,-4.3863,-4.4043,-4.4078,-4.4204,-4.3982,-4.3985,-4.3987,0,-4.3813,-4.3832,-4.3927,-4.3922,-4.3937,-4.3978,-4.3998,-4.4027,-4.4032,-4.402,-4.4034,-4.3997,-4.4047,-4.3978,-4.4047,-4.3994,-4.4009,-4.4005,-4.4009,-4.4009,-4.3932,-4.4047,-4.4243,-4.4261,-4.4014,-4.4012,-4.401,0,-4.3946,-4.3996,-4.4059,-4.4066,-4.4062,-4.4093,-4.4093,-4.4094,-4.4111,-4.4129,-4.4139,-4.4162,-4.4175,-4.4194,-4.4164,-4.4117,-4.4237,-4.4165,-4.4227,-4.4228,-4.4253,-4.4252,-4.4452,-4.4267,-4.4266,-4.4266,-4.4266,0,-4.4097,-4.4157,-4.4119,-4.4157,-4.4223,-4.4186,-4.4251,-4.4245,-4.4247,-4.4283,-4.4234,-4.4269,-4.4229,-4.426,-4.4237,-4.4297,-4.4303,-4.4294,-4.4287,-4.4298,-4.4299,-4.4305,-4.4295,-4.4271,-4.427,-4.4269,-4.4268,0,-4.4256,-4.4233,-4.4297,-4.4289,-4.4289,-4.4337,-4.433,-4.4365,-4.435,-4.4396,-4.4405,-4.4381,-4.4415,-4.4388,-4.4421,-4.4406,-4.4485,-4.4467,-4.4483,-4.4477,-4.454,-4.4534,-4.4751,-4.4777,-4.4576,-4.4578,-4.458,0,-4.4352,-4.4397,-4.4395,-4.4416,-4.4419,-4.4453,-4.447,-4.4436,-4.4456,-4.4466,-4.45,-4.453,-4.4552,-4.4609,-4.4594,-4.462,-4.46,-4.4674,-4.4603,-4.4612,-4.4599,-4.4596,-4.46,-4.4688,-4.469,-4.4692,-4.4694,0,-4.4526,-4.4513,-4.454,-4.4564,-4.4586,-4.4603,-4.4616,-4.4636,-4.46,-4.4626,-4.466,-4.4677,-4.4712,-4.4742,-4.4762,-4.4761,-4.4722,-4.4717,-4.4732,-4.4742,-4.4749,-4.4745,-4.4521,-4.4711,-4.471,-4.4708,-4.4707,-4.4707,-4.4656,-4.4693,-4.4697,-4.4729,-4.4735,-4.4749,-4.4781,-4.4771,-4.4799,-4.4825,-4.4803,-4.4845,-4.4849,-4.4872,-4.4877,-4.4908,-4.4877,-4.49,-4.4905,-4.4911,-4.4919,-4.4747,-4.4912,-4.4912,-4.4911,-4.4911,-4.491,0,-4.4825,-4.4826,-4.4856,-4.4876,-4.4901,-4.4863,-4.4876,-4.4899,-4.4936,-4.4944,-4.4967,-4.5007,-4.5037,-4.5025,-4.5051,-4.5078,-4.5061,-4.5086,-4.5082,-4.5083,-4.4946,-4.4929,-4.51,-4.51,-4.51,-4.51,-4.51,-4.51,-4.4917,-4.4977,-4.4965,-4.5028,-4.5028,-4.5068,-4.5079,-4.5091,-4.5097,-4.5144,-4.5168,-4.5161,-4.5161,-4.5187,-4.5212,-4.5208,-4.5219,-4.525,-4.524,-4.5111,-4.5093,-4.5075,-4.5059,-4.5254,-4.5254,-4.5373,-4.5374,-4.5375]},{"header":{"parameterUnit":"m.s-1","parameterCategory":1,"la1":30.2991,"la2":30.254,"lo1":-89.0895,"lo2":-89.0444,"dy":0.0017,"dx":0.0017,"nx":28,"ny":28,"refTime":"2024-02-11T09:00:00:Z","depth":0,"parameterNumber":3,"parameterNumberName":"V-component_of_WINDS"},"data":[0,0,0,0,0,0,0,0,0,0,0,0,0,0,0,0,0,0,0,0,0,0,0,0,0,0,0,0,0,0,0,0,0,0,0,0,0,0,0,0,0,0,0,0,0,0,0,0,0,0,0,0,0,0,0,0,0,0,1.1571,1.1571,0,1.1621,1.1622,1.1623,1.1642,1.1642,1.1642,1.1642,1.1694,1.1695,1.1697,0,0,0,0,0,0,0,0,0,0,0,0,0,1.1492,1.1494,1.1571,1.1572,1.1572,1.1621,1.1622,1.1623,1.1642,1.1642,1.1642,1.1642,1.1693,1.1695,1.1697,0,0,0,0,0,0,0,0,0,0,0,0,0,1.1533,1.1494,1.1571,1.1588,1.159,1.1621,1.1622,1.1623,1.1642,1.1642,1.1642,1.1642,1.1692,1.1695,1.1697,1.1715,0,0,1.1704,1.1705,0,0,0,0,0,0,0,0,1.1531,1.1536,1.1585,1.1587,1.1589,1.1625,1.1613,1.1654,1.1642,1.1622,1.1642,1.1641,1.1671,1.1675,1.1685,1.1718,1.172,1.1704,1.1705,1.1706,1.1707,0,0,0,0,0,0,0,1.1528,1.1534,1.1591,1.1585,1.1588,1.1593,1.1599,1.1621,1.1647,1.1624,1.1626,1.1631,1.1672,1.1683,1.1686,1.1721,1.1704,1.1706,1.1707,1.1708,1.1772,1.1773,0,0,0,0,0,0,1.1522,1.1531,1.1589,1.1592,1.1559,1.1595,1.1601,1.1614,1.1647,1.1652,1.1631,1.1632,1.1679,1.1684,1.1688,1.1713,1.1706,1.1709,1.171,1.1772,1.1772,1.1773,0,0,0,0,0,0,1.152,1.1527,1.1587,1.1562,1.157,1.1596,1.1611,1.1615,1.1626,1.1653,1.1657,1.1637,1.1679,1.1685,1.1709,1.1715,1.171,1.1712,1.1772,1.1772,1.1773,1.1762,0,0,0,0,0,0,1.1518,1.1526,1.1533,1.1562,1.1572,1.1607,1.1611,1.1616,1.1629,1.1631,1.166,1.1664,1.1679,1.1705,1.1711,1.1718,1.1713,1.1771,1.1772,1.1772,1.1762,1.1762,1.1762,0,0,0,0,0,1.1515,1.1528,1.1534,1.154,1.1581,1.1607,1.1612,1.1629,1.163,1.1637,1.1655,1.1663,1.1713,1.1707,1.1714,1.1722,1.1771,1.1772,1.1772,1.1762,1.1762,1.1762,0,0,0,0,0,0,1.1499,1.1532,1.1539,1.1561,1.1581,1.161,1.162,1.1629,1.1649,1.165,1.167,1.1676,1.1699,1.1713,1.1706,1.1742,1.1743,1.1745,1.1732,1.1733,1.1733,1.1729,1.1715,0,0,0,0,0,1.1498,1.1516,1.1544,1.1561,1.1571,1.1594,1.1606,1.1617,1.1639,1.1647,1.1667,1.1687,1.1708,1.1721,1.1741,1.1764,1.1771,1.1773,1.1773,1.1773,1.1774,1.1789,1.179,1.1775,1.1775,1.1775,0,0,1.1496,1.1516,1.1526,1.1559,1.1575,1.1594,1.1601,1.162,1.1635,1.165,1.1674,1.1689,1.1714,1.1737,1.1748,1.1749,1.178,1.1774,1.1773,1.1775,1.179,1.1791,1.1792,1.1776,1.1776,1.1776,0,0,1.1502,1.1519,1.1536,1.1553,1.1578,1.1594,1.1598,1.1626,1.1636,1.1661,1.1673,1.1691,1.1725,1.1743,1.1756,1.177,1.1779,1.1776,1.1777,1.1791,1.1792,1.1793,1.1799,1.1801,1.1778,1.1778,1.1778,0,1.1497,1.1526,1.1543,1.1563,1.1577,1.1592,1.161,1.1625,1.1656,1.1666,1.1667,1.1711,1.1729,1.1757,1.1761,1.1771,1.1777,1.1773,1.179,1.1792,1.1793,1.1799,1.1801,1.1777,1.1777,1.1777,1.1777,0,1.1518,1.1538,1.1549,1.1578,1.1594,1.1612,1.1633,1.1647,1.1657,1.1672,1.1697,1.1719,1.1745,1.1752,1.1762,1.1782,1.1782,1.1786,1.1787,1.1794,1.18,1.1802,1.1777,1.1777,1.1777,1.1777,0,0,1.1515,1.1556,1.1559,1.1573,1.1603,1.1619,1.1638,1.1664,1.1675,1.1696,1.1713,1.1743,1.1747,1.1762,1.1775,1.1786,1.1798,1.1789,1.179,1.1791,1.1823,1.182,1.1822,1.1803,1.1804,1.1804,1.1821,0,1.1526,1.1562,1.1579,1.1607,1.1626,1.1641,1.1658,1.1679,1.1694,1.1713,1.1729,1.175,1.1754,1.1763,1.1776,1.1794,1.1805,1.1793,1.1821,1.1821,1.1815,1.1825,1.1823,1.1837,1.1823,1.1824,1.1824,0,1.1544,1.1565,1.1595,1.1624,1.1633,1.1647,1.1673,1.169,1.1714,1.1724,1.1742,1.1754,1.1776,1.1775,1.1805,1.1797,1.1809,1.182,1.1821,1.1825,1.1824,1.1831,1.1842,1.1845,1.1828,1.1827,1.1827,0,1.154,1.1576,1.1599,1.1611,1.1645,1.1655,1.167,1.1693,1.1708,1.173,1.174,1.1764,1.1777,1.1795,1.1814,1.1812,1.1843,1.1844,1.1853,1.1853,1.186,1.1859,1.1874,1.1866,1.1866,1.1866,1.1866,0,1.1551,1.1569,1.1598,1.1612,1.1633,1.1653,1.1674,1.1689,1.171,1.1728,1.1743,1.176,1.1783,1.1803,1.1817,1.1841,1.1847,1.1856,1.186,1.1855,1.1854,1.1864,1.1864,1.1866,1.1866,1.1866,1.1866,0,1.155,1.157,1.1597,1.1627,1.1635,1.1649,1.1675,1.169,1.1706,1.1729,1.1735,1.1761,1.1785,1.1805,1.1836,1.1846,1.1872,1.1875,1.1864,1.1866,1.1875,1.1874,1.1898,1.1902,1.189,1.189,1.189,0,1.1556,1.157,1.1602,1.1616,1.163,1.1651,1.1666,1.1687,1.1702,1.1731,1.1743,1.1768,1.1789,1.1827,1.1849,1.1873,1.1878,1.1885,1.1882,1.1878,1.188,1.1879,1.1881,1.1885,1.1885,1.1885,1.1885,0,1.1565,1.1575,1.1596,1.1621,1.1639,1.1659,1.168,1.169,1.1715,1.1731,1.1757,1.1773,1.1806,1.1832,1.1859,1.1874,1.1884,1.1886,1.189,1.1886,1.1879,1.1884,1.1865,1.1886,1.1886,1.1886,1.1886,1.1886,1.1568,1.1582,1.1608,1.1631,1.1649,1.1669,1.1685,1.1703,1.1725,1.1753,1.1764,1.179,1.1815,1.1852,1.1868,1.1889,1.189,1.1895,1.1897,1.1898,1.1898,1.1875,1.1894,1.1894,1.1894,1.1894,1.1894,0,1.1579,1.1596,1.1617,1.1647,1.1666,1.1674,1.1698,1.1714,1.1736,1.1759,1.178,1.1809,1.1834,1.1858,1.1884,1.1897,1.1902,1.1903,1.1903,1.1906,1.1895,1.1889,1.1898,1.1898,1.1898,1.1898,1.1898,1.1898,1.1586,1.1611,1.1624,1.1658,1.1675,1.1701,1.1715,1.1733,1.1751,1.1784,1.1805,1.182,1.1844,1.1872,1.1896,1.1902,1.1911,1.1911,1.1919,1.1908,1.1907,1.1906,1.1902,1.1913,1.1913,1.1929,1.1929,1.1929]}]]